Other Public Products
Issued by NWS Grand Forks, ND

Home | Current Version | Previous Version | Graphics & Text | Print | Product List | Glossary On
Versions: 1 2 3 4 5 6 7 8 9 10 11 12 13 14 15 16 17 18 19 20 21 22 23 24 25 26 27 28 29 30 31 32 33 34 35 36 37 38 39 40 41 42 43 44 45 46 47 48 49 50
000
FPUS83 KFGF 291910
OPUFGF
PRAIRIE TO PINES WEATHER ROUNDUP
NATIONAL WEATHER SERVICE EASTERN NORTH DAKOTA/GRAND FORKS ND
200 PM CDT WED MAR 29 2017

 **SATELLITE DATA USED TO AUGMENT SKY COVER AT AUTOMATED STATIONS**
 *****  WEATHER ACROSS EASTERN NORTH DAKOTA  *****

CITY           SKY/WX    TMP DP  RH WIND       PRES   REMARKS
GRAND FORKS    FAIR      58  46  64 S12       30.10F
GRAND FORKS AF FAIR      59  46  61 S12       30.09F
GRAND CITY NWS NOT AVBL
BUXTON         NOT AVBL
DEVILS LAKE    FAIR      54  40  59 S10       30.05F
FARGO          FAIR      59  40  49 S12       30.12F
WAHPETON ARPT  FAIR      55  37  50 S12       30.14F
$$

 *****  WEATHER ACROSS CENTRAL AND WESTERN NORTH DAKOTA  *****

CITY           SKY/WX    TMP DP  RH WIND       PRES   REMARKS
JAMESTOWN      FAIR      61  36  39 S17       30.07F
BISMARCK       PTSUNNY   61  40  45 S14       30.04F
MINOT          CLOUDY    59  43  55 S17G28    29.97F
MINOT AFB      PTSUNNY   55  45  67 SW14      29.95F
GARRISON         N/A     58  42  55 S16       29.98F
WILLISTON      FAIR      60  34  37 W13       29.94F
DICKINSON      FAIR      57  37  47 SW14      29.97F
HETTINGER      PTSUNNY   56  39  53 SW9       30.03F
$$

 *****  OTHER OBSERVATIONS NORTHEAST NORTH DAKOTA  *****

CITY           SKY/WX    TMP DP  RH WIND       PRES   REMARKS
WALHALLA       NOT AVBL
LANGDON        FAIR      52  46  82 S12       30.05F
CAVALIER       FAIR      55  46  71 S10       30.06F
GRAFTON        FAIR      57  46  67 SE12      30.10F
CANDO          NOT AVBL
FORT TOTTEN      N/A     59  42  53 S10       29.95S
ROLLA          FAIR      45  45 100 S16G23    30.01F
RUGBY          NOT AVBL
 ***** THE ABOVE OBSERVATIONS ARE NON NWS ARE NOT QUALITY
        CONTROLLED AND MAY MIS-REPORT RAIN FOR SNOW...
$$

 *****  OTHER OBSERVATIONS SOUTHEAST NORTH DAKOTA *****

CITY           SKY/WX    TMP DP  RH WIND       PRES   REMARKS
COOPERSTOWN    FAIR      57  43  58 S14       30.09F
VALLEY CITY    FAIR      61  36  39 S14G20    30.10F
OAKES          NOT AVBL
GWINNER        PTCLDY    61  32  33 MISG      30.10F
SHEYENNE NWR     N/A     62  34  35 S12       29.95S
BUFFALO        NOT AVBL
WYNDMERE       NOT AVBL
 ***** THE ABOVE OBSERVATIONS ARE NON NWS ARE NOT QUALITY
       CONTROLLED AND MAY MIS-REPORT RAIN FOR SNOW...
$$

  *****  WEATHER ACROSS NORTHERN MINNESOTA  *****

CITY           SKY/WX    TMP DP  RH WIND       PRES   REMARKS
FLAG ISLAND    FAIR      43  28  56 SW3       30.15F
WARROAD        FAIR      52  37  58 NE6       30.13F
ROSEAU         FAIR      59  39  47 S7        30.11F
HALLOCK        FAIR      54  46  76 S13       30.09F
THF RVR FALLS  FAIR      56  40  55 S8        30.13F
HALSTAD          N/A     58  39  48 S14         N/A
FOSSTON        FAIR      57  32  38 S14       30.14F
BAUDETTE       FAIR      56  32  40 S9        30.15F
WASKISH        PTSUNNY   57  34  41 SE7       30.16F
CROOKSTON      FAIR      57  45  62 SW14      30.12F
$$
  *****  WEATHER ACROSS CENTRAL AND WEST MINNESOTA  *****

CITY           SKY/WX    TMP DP  RH WIND       PRES   REMARKS
BEMIDJI        FAIR      50  32  48 SE7       30.17F
PARK RAPIDS    FAIR      50  29  44 SE8       30.17F
WADENA         FAIR      52  34  50 SE7       30.16F HAZE
DETROIT LAKES  FAIR      54  32  43 S9        30.16S
MOORHEAD       FAIR      57  43  58 S10       30.14F
FERGUS FALLS   FAIR      55  36  47 SE10      30.18S
ELBOW LAKE     FAIR      56  37  48 SE10G18   30.15F
MORRIS MN      FAIR      55  39  54 SE10      30.13F
STAPLES        FAIR      50  32  50 E6        30.17F
WHEATON        FAIR      57  37  47 SE9       30.16S
$$
  *****  WEATHER ELSEWHERE ACROSS MINNESOTA  *****

CITY           SKY/WX    TMP DP  RH WIND       PRES   REMARKS
DULUTH         FAIR      38  31  76 E14       30.26F
INTRNTL FALLS  FAIR      51  30  44 SE10      30.20F
ELY            FAIR      41  27  56 SE13      30.25F
CLOQUET        FAIR      37  30  75 E9        30.26F
BRAINERD       FAIR      46  32  58 SE7       30.20F
HIBBING        FAIR      43  29  57 SE9       30.24F
ALEXANDRIA     FAIR      51  36  56 SE14      30.16F
SAINT CLOUD    FAIR      51  34  52 SE9       30.19F
MINNEAPOLIS    CLOUDY    50  34  54 SE15      30.21F
$$

  *****  WEATHER ACROSS SOUTH DAKOTA  *****

CITY           SKY/WX    TMP DP  RH WIND       PRES   REMARKS
SIOUX FALLS    CLOUDY    49  41  74 E18       30.09F
BROOKINGS      FAIR      53  33  46 SE22      30.09F
WATERTOWN      FAIR      54  36  50 SE12      30.10F
HURON          PTSUNNY   56  38  50 S8        30.09F
SISSETON         N/A     57  40  52 S13       30.12F
ABERDEEN       FAIR      61  32  33 S14       30.09F
MITCHELL       CLOUDY    52  38  58 SE20      30.10F
PIERRE         PTSUNNY   59  34  39 VRB7      30.05F
MOBRIDGE       FAIR      62  31  31 S9        30.04F
RAPID CITY     FAIR      52  42  69 N5        30.05F
$$

  *****  SOME WEATHER IN NEARBY STATES *****

CITY           SKY/WX    TMP DP  RH WIND       PRES   REMARKS
GLASGOW MT     FAIR      56  27  32 W15G24    29.95F
GREAT FALLS MT FAIR      48  33  56 SW24G30   29.94F
CHEYENNE WY    CLOUDY    48  29  47 NW14G23   30.05F
SCOTTSBLUFF NE CLOUDY    51  39  63 N6        30.04F
OMAHA NE       RAIN      43  38  82 NE14G23   29.93R
DES MOINES IA  RAIN      44  42  93 NE18G25   29.93F FOG
DAVENPORT IA   CLOUDY    47  41  80 E21G33    30.07F
CHICAGO IL     CLOUDY    45  35  68 NE12      30.21F
EAU CLAIRE WI  CLOUDY    50  32  50 E6        30.24F
LA CROSSE WI   LGT RAIN  46  36  68 NE7       30.24F
$$

  *****  SOME NATIONAL WEATHER *****

CITY           SKY/WX    TMP DP  RH WIND       PRES   REMARKS
LA GUARDIA NY  FAIR      58  28  32 NW18G28   30.03F
RALEIGH NC     PTSUNNY   69  51  52 SE3       30.07F
ATLANTA GA     FAIR      80  56  43 CALM      30.04S
NEW ORLEANS LA FAIR      81  65  58 SE16      29.94F
OKLAHOMA CITY  LGT RAIN  54  51  90 W12       29.71R
ALBUQUERQUE NM FAIR      57  35  43 W6        29.99F
SALT LAKE CITY FAIR      52  30  43 NW3       30.22F
LOS ANGELES CA FAIR      73  47  39 W8        30.05S
BOISE ID       CLOUDY    57  34  41 SE15      30.13F
SEATTLE WA     CLOUDY    55  49  80 S22G28    29.82S
$$

*** WEATHER ACROSS MANITOBA...SASKATCHEWAN AND ONTARIO ***
                ***ONTARIO***

CITY           SKY/WX    TMP DP  RH WIND       PRES   REMARKS
GERALDTON      PTSUNNY   37  16  41 SE3       30.37F
THUNDER BAY    CLOUDY    36  25  64 E10       30.39F
SIOUX LOOKOUT  CLOUDY    43  23  45 S7        30.24F
TORONTO        PTSUNNY   48  28  46 VRB7G18   30.24F
BIG TROUT LK   MOSUNNY   36  18  48 S10       30.31F
PICKLE LAKE    PTSUNNY   37  19  48 SE13      30.29F
DRYDEN         CLOUDY    48  28  46 SE12      30.20F
KENORA         PTSUNNY   52  28  40 SE12      30.14F
$$
                *** MANITOBA***

CITY           SKY/WX    TMP DP  RH WIND       PRES   REMARKS
BRANDON        CLOUDY    45  39  81 SW5       29.99F
DAUPHIN        MOSUNNY   39  34  81 E6        29.96F
ISLAND LAKE    PTSUNNY   37  25  60 SE9       30.16
PILOT MOUND      N/A     46  43  87 S8          N/A
THE PAS        LGT RAIN  34  30  86 SE10      29.97F
THOMPSON       CLOUDY    41  19  42 S3        30.09F
WINNIPEG       PTSUNNY   52  41  66 S17       30.06F
LYNN LAKE      CLOUDY    36  27  69 SE9       30.01F
CHURCHILL      PTSUNNY   25  18  74 SE8       30.24F WCI  16
GILLAM         MOSUNNY   41  19  42 SE8       30.18F
$$
                ***SASKATCHEWAN***

CITY           SKY/WX    TMP DP  RH WIND       PRES   REMARKS
ESTEVAN        CLOUDY    54  34  47 SW13      29.92F
KINDERSLEY     PTSUNNY   54  28  37 W5        29.82F
LLOYDMINSTER   CLOUDY    36  36 100 S5        29.84F FOG
PRINCE ALBERT  CLOUDY    37  36  93 E7        29.85F FOG
REGINA         MOSUNNY   55  30  38 W16       29.85F
YORKTON        CLOUDY    43  39  87 S7        29.89S



USA.gov is the U.S. government's official web portal to all federal, state and local government web resources and services.